Weather Roundup
Issued by NWS Corpus Christi, TX

Home | Current Version | Previous Version | Text Only | Print | Product List | Glossary On
Versions: 1 2 3 4 5 6 7 8 9 10 11 12 13 14 15 16 17 18 19 20 21 22 23 24 25 26 27 28 29 30 31 32 33 34 35 36 37 38 39 40 41 42 43 44 45 46 47 48 49 50
000
ASUS44 KCRP 200510
HRRCRP

SOUTH TEXAS REGIONAL WEATHER ROUNDUP
NATIONAL WEATHER SERVICE CORPUS CHRISTI TX
1200 AM CDT WED AUG 20 2014


TXZ229>244-200600-
...CORPUS CHRISTI AREA OBSERVATIONS...

CITY           SKY/WX    TMP DP  RH WIND       PRES   REMARKS
CORPUS CHRISTI PTCLDY    82  77  84 SE12      29.91S HX  90
NAS CORPUS CHR PTCLDY    84  80  88 SE12      29.91S HX  97
ROCKPORT       CLEAR     84  77  79 SE14      29.92S HX  94
KINGSVILLE NAS PTCLDY    83  79  88 SE12      29.90S HX  94
ALICE          CLEAR     81  77  88 SE12      29.90S
FALFURRIAS     CLEAR     87  68  53 SE10G17   29.89S HX  91
$$

...VICTORIA AREA OBSERVATIONS...

CITY           SKY/WX    TMP DP  RH WIND       PRES   REMARKS
VICTORIA       CLEAR     81  76  84 SE8       29.94S
BEEVILLE       FAIR      80  75  82 SE9       29.92S
PLEASANTON     CLOUDY    82  71  68 SE17G24   29.91R
SAN ANTONIO    CLOUDY    83  68  60 SE21G26   29.92R
$$

...LAREDO AREA OBSERVATIONS...

CITY           SKY/WX    TMP DP  RH WIND       PRES   REMARKS
LAREDO         MOCLDY    87  66  49 SE18      29.88R
COTULLA        MOCLDY    85  69  58 SE17G29   29.87R
DEL RIO        PTCLDY    87  68  52 E13       29.82R HX  90
MCALLEN        CLEAR     83  76  79 SE13      29.89S HX  91
HEBBRONVILLE   CLEAR     83  65  55 E10       29.91R
$$

...OTHER TEXAS OBSERVATIONS...

CITY           SKY/WX    TMP DP  RH WIND       PRES   REMARKS
BROWNSVILLE    CLEAR     81  77  88 SE6       29.91S
HOUSTON        MOCLDY    77  75  93 SE3       29.94S
COL. STATION   CLOUDY    79  73  82 SE12      29.93S
AUSTIN         CLOUDY    83  70  64 S16       29.91R
WACO           CLOUDY    80  70  71 S15       29.91R
FORT WORTH     CLOUDY    82  69  64 S15       29.89S
WICHITA FALLS  CLEAR     82  65  56 S10       29.87R
LUBBOCK        PTCLDY    79  64  60 S15       29.93S
EL PASO        MOCLDY    76  58  53 SW16      29.96S
$$

...MARINE OBSERVATIONS...

STATION/POSITION TIME  SKY/WX   TEMP    WIND        PRES    VSBY  WAVE   SWELL
                                AIR SEA DIR/SP/G                  HT/PER HT/PER
                 (UTC)          (F)     (DEG/KT/KT) (MB)    (MI)  (FT/S) (FT/S)
PORT ARANSAS     0500            83 85  120/  9/ 10 1013.6F
BUOY 90 E PORT A 0500            85 85  130/ 14/ 16 1014.1R         3/ 6   2/ 6
BUOY 45 SE BAFFI 0500            85 86  150/ 14/ 17 1012.5S         3/ 5
BUOY 200 E PT IS 0500            85 86  130/ 12/ 14 1014.0R         3/ 5   2/ 5
BUOY 15 E GALVES NOT AVBL
$$



USA.gov is the U.S. government's official web portal to all federal, state and local government web resources and services.